Weather History for CWYL - December, 2012

Change the Weather History Date:

Sunday, December 30, 2012

  Actual Average Record
Temperature  
Mean Temperature -2 °F -  
Max Temperature 6 °F - - ()
Min Temperature -9 °F - - ()
Degree Days  
Heating Degree Days 66    
Moisture  
Dew Point -5 °F    
Average Humidity 83    
Maximum Humidity 88    
Minimum Humidity 72    
Precipitation  
Precipitation 0.00 in - - ()
Sea Level Pressure  
Sea Level Pressure 30.37 in    
Wind  
Wind Speed 4 mph ()    
Max Wind Speed 16 mph    
Max Gust Speed -    
T = Trace of Precipitation, MM = Missing Value Source: Averaged Metar Reports

Daily Weather History Graph

Daily Weather History Graph

Search for Another Location

Airport or City:

Trip Planner

Search our weather history database for the weather conditions in past years. The results will help you decide how hot, cold, wet, or windy it might be!

Date:

Astronomy

Dec. 30, 2012 Rise Set
Actual Time 8:50 AM MST 4:45 PM MST
Civil Twilight 8:10 AM MST 5:25 PM MST
Nautical Twilight 7:27 AM MST 6:08 PM MST
Astronomical Twilight 6:47 AM MST 6:49 PM MST
Moon 7:41 PM MST (12/30) 9:44 AM MST (12/30)
Length of Visible Light 9h 15m
Length of Day
7h 55m
Waning Gibbous, 95% of the Moon is Illuminated
Dec 30
Waning Gibbous
Jan 4
Last Quarter
Jan 11
New
Jan 18
First Quarter
Jan 26
Full

Hourly Weather History & Observations

Time (MST) Temp. Windchill Dew Point Humidity Pressure Visibility Wind Dir Wind Speed Gust Speed Precip Events Conditions
12:00 AM -0.0 °F - -3.5 °F 85% 30.32 in - ENE 2.3 mph - N/A   Unknown
1:00 AM -1.8 °F - -6.0 °F 83% 30.32 in - Calm Calm - N/A   Unknown
2:00 AM -3.3 °F - -7.2 °F 83% 30.32 in - East 1.2 mph - N/A   Unknown
3:00 AM -4.4 °F - -8.3 °F 83% 30.34 in - NE 1.2 mph - N/A   Unknown
4:00 AM -5.4 °F - -9.8 °F 82% 30.36 in - NE 1.2 mph - N/A   Unknown
5:00 AM -7 °F - -11 °F 73% 30.35 in - Calm Calm - -  
5:00 AM -6.5 °F - -11.0 °F 81% 30.35 in - Calm Calm - N/A   Unknown
7:00 AM -8.1 °F - -12.6 °F 81% 30.38 in - Calm Calm - N/A   Unknown
8:00 AM -9.2 °F - -13.7 °F 81% 30.38 in - Calm Calm - N/A   Unknown
9:00 AM -9.6 °F - -13.9 °F 81% 30.39 in - Calm Calm - N/A   Unknown
10:00 AM -9.8 °F - -14.1 °F 81% 30.40 in - NW 1.2 mph - N/A   Unknown
11:00 AM -9 °F - -13 °F 72% 30.41 in - Calm Calm - -  
11:00 AM -9.0 °F - -13.2 °F 82% 30.41 in - Calm Calm - N/A   Unknown
12:00 PM 2.3 °F -15.7 °F -1.1 °F 86% 30.36 in - SW 13.8 mph - N/A   Unknown
1:00 PM 5.9 °F -11.2 °F 2.5 °F 86% 30.34 in - WSW 13.8 mph - N/A   Unknown
2:00 PM 5.2 °F -13.3 °F 1.8 °F 86% 30.35 in - SW 16.1 mph - N/A   Unknown
3:00 PM 4.3 °F -13.9 °F 1.0 °F 86% 30.36 in - WSW 15.0 mph - N/A   Unknown
4:00 PM 4.1 °F -13.4 °F 1.0 °F 87% 30.38 in - WSW 13.8 mph - N/A   Unknown
5:00 PM 4 °F - 1 °F 80% 30.40 in - SW 11.5 mph - -  
6:00 PM 3.0 °F -11.5 °F -0.2 °F 86% 30.40 in - WSW 9.2 mph - N/A   Unknown
7:00 PM 1.6 °F -13.3 °F -1.5 °F 87% 30.40 in - WSW 9.2 mph - N/A   Unknown
8:00 PM 1.9 °F -11.8 °F -1.1 °F 87% 30.41 in - WSW 8.1 mph - N/A   Unknown
9:00 PM 3.9 °F -11.3 °F 1.0 °F 88% 30.40 in - WSW 10.4 mph - N/A   Unknown
10:00 PM 5.2 °F -8.9 °F 2.3 °F 88% 30.40 in - WSW 9.2 mph - N/A   Unknown
11:00 PM 6 °F - 3 °F 79% 30.40 in - SW 6.9 mph - -  
11:00 PM 5.5 °F -6.3 °F 2.7 °F 88% 30.40 in - SW 6.9 mph - N/A   Unknown